SUD010 UWGG-UTDD

Flight info

Callsign SUD010
Flight time N/A
Altitude 35000
Route T778 DCT MOF M161 ODIVA L162 UMZAN
Aircraft A320/M-SDFGHILORVWY/S

Departure

Time 2026-04-21 22:17
Airport Nizhny Novgorod / Strigino International Airport (UWGG)

Arrival

Time N/A
Airport Dushanbe International Airport (UTDD)
Time Latitude Longitude Altitude Speed Heading
2026-04-21 22:06 56.22234 43.78753 260 ft 0 kts 70°
2026-04-21 22:08 56.22235 43.78754 260 ft 0 kts 57°
2026-04-21 22:08 56.22242 43.78757 260 ft 2 kts 14°
2026-04-21 22:08 56.22281 43.78766 260 ft 9 kts
2026-04-21 22:08 56.22365 43.78797 260 ft 15 kts 13°
2026-04-21 22:09 56.22478 43.78882 260 ft 19 kts 16°
2026-04-21 22:09 56.22626 43.78932 260 ft 24 kts 11°
2026-04-21 22:09 56.22801 43.78979 260 ft 24 kts 10°
2026-04-21 22:09 56.22979 43.79049 260 ft 28 kts
2026-04-21 22:10 56.23180 43.79129 260 ft 31 kts 12°
2026-04-21 22:10 56.23393 43.79195 260 ft 26 kts 10°
2026-04-21 22:10 56.23571 43.79245 261 ft 26 kts
2026-04-21 22:10 56.23726 43.79259 261 ft 21 kts
2026-04-21 22:11 56.23888 43.79274 261 ft 25 kts
2026-04-21 22:11 56.24041 43.79257 261 ft 19 kts 338°
2026-04-21 22:11 56.24100 43.79122 261 ft 6 kts 289°
2026-04-21 22:11 56.24100 43.79121 261 ft 0 kts 289°
2026-04-21 22:14 56.24104 43.79096 262 ft 4 kts 283°
2026-04-21 22:14 56.24110 43.79034 263 ft 6 kts 268°
2026-04-21 22:15 56.24035 43.78968 262 ft 19 kts 189°
2026-04-21 22:15 56.24021 43.78964 262 ft 0 kts 191°
2026-04-21 22:16 56.24009 43.78960 262 ft 11 kts 191°
2026-04-21 22:16 56.23679 43.78834 259 ft 84 kts 191°
2026-04-21 22:17 56.22907 43.78550 261 ft 140 kts 191°
2026-04-21 22:17 56.21806 43.78151 375 ft 173 kts 193°
2026-04-21 22:17 56.20655 43.77703 1052 ft 169 kts 195°
2026-04-21 22:17 56.19502 43.77217 1706 ft 170 kts 196°
2026-04-21 22:18 56.18357 43.76743 2221 ft 170 kts 195°
2026-04-21 22:18 56.17146 43.76225 2450 ft 190 kts 195°
2026-04-21 22:18 56.15779 43.75652 2622 ft 213 kts 191°
2026-04-21 22:18 56.14218 43.75623 2798 ft 238 kts 169°
2026-04-21 22:19 56.12593 43.76702 3104 ft 259 kts 146°
2026-04-21 22:19 56.11276 43.78876 3705 ft 265 kts 123°
2026-04-21 22:19 56.10486 43.81830 4453 ft 263 kts 99°
2026-04-21 22:19 56.10171 43.85056 5238 ft 265 kts 98°
2026-04-21 22:20 56.09830 43.88310 6044 ft 265 kts 94°
2026-04-21 22:20 56.09582 43.91588 6782 ft 267 kts 92°
2026-04-21 22:20 56.09355 43.94910 7490 ft 271 kts 95°
2026-04-21 22:20 56.08826 43.98195 8170 ft 280 kts 110°
2026-04-21 22:21 56.07792 44.01200 8841 ft 289 kts 127°
2026-04-21 22:21 56.06355 44.03788 9543 ft 294 kts 134°
2026-04-21 22:21 56.04863 44.06344 10039 ft 305 kts 134°
2026-04-21 22:21 56.03274 44.09070 10168 ft 327 kts 134°
2026-04-21 22:22 56.01575 44.11983 10308 ft 349 kts 134°
2026-04-21 22:22 55.99782 44.15044 10627 ft 362 kts 134°
2026-04-21 22:22 55.97952 44.18160 11178 ft 367 kts 135°
2026-04-21 22:22 55.96134 44.21249 11778 ft 370 kts 135°
2026-04-21 22:23 55.94225 44.24483 12414 ft 373 kts 135°
2026-04-21 22:23 55.92338 44.27676 13016 ft 376 kts 135°
2026-04-21 22:23 55.90420 44.30917 13625 ft 380 kts 135°
2026-04-21 22:23 55.88494 44.34165 14160 ft 382 kts 136°
2026-04-21 22:24 55.86555 44.37430 14700 ft 385 kts 136°
2026-04-21 22:24 55.84602 44.40711 15249 ft 387 kts 136°
2026-04-21 22:24 55.82668 44.43963 15793 ft 389 kts 137°
2026-04-21 22:24 55.80699 44.47273 16337 ft 391 kts 137°
2026-04-21 22:25 55.78718 44.50604 16876 ft 393 kts 137°
2026-04-21 22:25 55.76723 44.53957 17418 ft 395 kts 137°
2026-04-21 22:25 55.74725 44.57305 17953 ft 398 kts 137°
2026-04-21 22:25 55.72693 44.60694 18439 ft 400 kts 137°
2026-04-21 22:26 55.70660 44.64077 18888 ft 403 kts 138°
2026-04-21 22:26 55.68610 44.67486 19325 ft 405 kts 138°
2026-04-21 22:26 55.66544 44.70919 19709 ft 409 kts 138°
2026-04-21 22:26 55.64452 44.74391 20111 ft 413 kts 138°
2026-04-21 22:27 55.62355 44.77866 20523 ft 415 kts 138°
2026-04-21 22:27 55.60233 44.81375 20920 ft 418 kts 138°
2026-04-21 22:27 55.58103 44.84890 21304 ft 420 kts 138°
2026-04-21 22:27 55.55959 44.88422 21701 ft 423 kts 138°
2026-04-21 22:28 55.53804 44.91970 22088 ft 425 kts 138°
2026-04-21 22:28 55.51631 44.95540 22446 ft 428 kts 139°
2026-04-21 22:28 55.49444 44.99126 22804 ft 430 kts 139°
2026-04-21 22:28 55.47245 45.02725 23148 ft 433 kts 138°
2026-04-21 22:29 55.45031 45.06349 23447 ft 436 kts 138°
2026-04-21 22:29 55.42808 45.09988 23713 ft 438 kts 138°
2026-04-21 22:29 55.40568 45.13644 23997 ft 440 kts 138°
2026-04-21 22:29 55.38318 45.17302 24284 ft 442 kts 138°
2026-04-21 22:30 55.36054 45.20979 24552 ft 443 kts 139°
2026-04-21 22:30 55.33813 45.24616 24822 ft 445 kts 139°
2026-04-21 22:30 55.31506 45.28359 25096 ft 447 kts 139°
2026-04-21 22:30 55.29218 45.32070 25354 ft 449 kts 139°
2026-04-21 22:31 55.26954 45.35735 25617 ft 450 kts 139°
2026-04-21 22:31 55.24618 45.39506 25857 ft 452 kts 139°
2026-04-21 22:31 55.22297 45.43241 26106 ft 454 kts 139°
2026-04-21 22:31 55.19972 45.46976 26358 ft 455 kts 139°
2026-04-21 22:32 55.17658 45.50687 26585 ft 457 kts 139°
2026-04-21 22:32 55.15315 45.54443 26817 ft 458 kts 139°
2026-04-21 22:32 55.12961 45.58217 27043 ft 460 kts 139°
2026-04-21 22:32 55.10595 45.62000 27261 ft 461 kts 139°
2026-04-21 22:33 55.08248 45.65740 27476 ft 463 kts 139°
2026-04-21 22:33 55.05866 45.69526 27673 ft 464 kts 139°
2026-04-21 22:33 55.03471 45.73324 27864 ft 466 kts 139°
2026-04-21 22:33 55.01073 45.77124 28051 ft 467 kts 139°
2026-04-21 22:34 54.98903 45.80561 28208 ft 468 kts 139°
2026-04-21 22:34 54.96805 45.83769 28312 ft 463 kts 139°
2026-04-21 22:34 54.94454 45.87364 28422 ft 466 kts 139°
2026-04-21 22:34 54.92044 45.91158 28590 ft 468 kts 139°
2026-04-21 22:35 54.89647 45.94992 28818 ft 468 kts 139°
2026-04-21 22:35 54.87264 45.98814 29061 ft 468 kts 139°
2026-04-21 22:35 54.84865 46.02636 29305 ft 467 kts 139°
2026-04-21 22:35 54.82473 46.06414 29504 ft 468 kts 139°
2026-04-21 22:36 54.77636 46.13897 29972 ft 467 kts 141°
2026-04-21 22:36 54.75168 46.17444 30163 ft 466 kts 142°
2026-04-21 22:36 54.72624 46.20929 30362 ft 466 kts 143°
2026-04-21 22:37 54.70058 46.24356 30555 ft 466 kts 144°
2026-04-21 22:37 54.67492 46.27766 30741 ft 466 kts 144°
2026-04-21 22:37 54.64933 46.31198 30926 ft 466 kts 143°
2026-04-21 22:37 54.62389 46.34657 31102 ft 466 kts 143°
2026-04-21 22:38 54.59860 46.38130 31270 ft 467 kts 143°
2026-04-21 22:38 54.57321 46.41627 31461 ft 467 kts 143°
2026-04-21 22:38 54.54788 46.45116 31652 ft 467 kts 143°
2026-04-21 22:38 54.53109 46.47424 31784 ft 467 kts 143°
2026-04-21 22:39 54.50570 46.50901 31973 ft 466 kts 143°
2026-04-21 22:39 54.48024 46.54367 32162 ft 466 kts 143°
2026-04-21 22:39 54.45476 46.57819 32345 ft 466 kts 143°
2026-04-21 22:39 54.42927 46.61263 32536 ft 466 kts 143°
2026-04-21 22:40 54.40377 46.64702 32712 ft 466 kts 144°
2026-04-21 22:40 54.37854 46.68097 32896 ft 466 kts 144°
2026-04-21 22:40 54.35307 46.71522 33078 ft 466 kts 144°
2026-04-21 22:40 54.32780 46.74924 33261 ft 466 kts 143°
2026-04-21 22:41 54.30311 46.78248 33437 ft 466 kts 143°
2026-04-21 22:41 54.27802 46.81770 33630 ft 467 kts 138°
2026-04-21 22:41 54.25596 46.85854 33781 ft 469 kts 129°
2026-04-21 22:41 54.23784 46.90495 33932 ft 471 kts 120°
2026-04-21 22:42 54.22415 46.95586 34068 ft 472 kts 112°
2026-04-21 22:42 54.21226 47.00812 34194 ft 472 kts 112°
2026-04-21 22:42 54.20028 47.06038 34348 ft 472 kts 112°
2026-04-21 22:42 54.18828 47.11248 34494 ft 472 kts 112°
2026-04-21 22:43 54.17621 47.16466 34638 ft 472 kts 112°
2026-04-21 22:43 54.16414 47.21661 34770 ft 472 kts 112°
2026-04-21 22:43 54.14000 47.32031 34803 ft 472 kts 112°
2026-04-21 22:44 54.11591 47.42332 34806 ft 472 kts 113°
2026-04-21 22:44 54.09153 47.52717 34804 ft 471 kts 113°
2026-04-21 22:45 54.06729 47.62991 34808 ft 471 kts 113°
2026-04-21 22:45 54.04265 47.73390 34805 ft 471 kts 114°
2026-04-21 22:46 54.01809 47.83697 34811 ft 470 kts 114°
2026-04-21 22:46 53.99373 47.93839 34815 ft 471 kts 114°
2026-04-21 22:47 53.96901 48.04107 34804 ft 472 kts 114°
2026-04-21 22:47 53.94458 48.14227 34805 ft 472 kts 114°
2026-04-21 22:48 53.91954 48.24543 34813 ft 473 kts 114°
2026-04-21 22:48 53.89437 48.34860 34818 ft 473 kts 114°
2026-04-21 22:49 53.86907 48.45161 34823 ft 473 kts 114°
2026-04-21 22:49 53.84400 48.55338 34815 ft 474 kts 115°
2026-04-21 22:50 53.81827 48.65727 34809 ft 474 kts 115°
2026-04-21 22:50 53.79267 48.76015 34822 ft 474 kts 115°
2026-04-21 22:51 53.76723 48.86280 34826 ft 475 kts 112°
2026-04-21 22:51 53.74671 48.96921 34830 ft 476 kts 109°
2026-04-21 22:52 53.72678 49.07572 34812 ft 476 kts 110°
2026-04-21 22:52 53.70649 49.18221 34815 ft 476 kts 110°
2026-04-21 22:53 53.68589 49.28774 34815 ft 477 kts 110°
2026-04-21 22:53 53.66515 49.39408 34813 ft 478 kts 110°
2026-04-21 22:54 53.64441 49.50070 34815 ft 478 kts 110°
2026-04-21 22:54 53.62359 49.60715 34802 ft 479 kts 111°
2026-04-21 22:55 53.60260 49.71368 34808 ft 479 kts 111°
2026-04-21 22:55 53.58151 49.82025 34817 ft 480 kts 111°
2026-04-21 22:56 53.56032 49.92679 34829 ft 480 kts 111°
2026-04-21 22:56 53.53899 50.03302 34836 ft 480 kts 113°
2026-04-21 22:57 53.52480 50.08345 34819 ft 474 kts 125°
2026-04-21 22:57 53.50553 50.12788 34822 ft 468 kts 136°
2026-04-21 22:57 53.48204 50.16519 34823 ft 462 kts 147°
2026-04-21 22:57 53.45532 50.19458 34823 ft 456 kts 157°
2026-04-21 22:58 53.39634 50.22959 34816 ft 449 kts 169°
2026-04-21 22:58 53.33698 50.25664 34818 ft 450 kts 169°
2026-04-21 22:59 53.27674 50.28389 34812 ft 450 kts 169°
2026-04-21 22:59 53.21623 50.31130 34831 ft 450 kts 169°
2026-04-21 23:00 53.15582 50.33864 34844 ft 450 kts 169°
2026-04-21 23:00 53.09540 50.36596 34850 ft 450 kts 169°
2026-04-21 23:01 53.03505 50.39319 34858 ft 450 kts 169°
2026-04-21 23:01 52.97462 50.42039 34857 ft 449 kts 169°
2026-04-21 23:02 52.91443 50.44734 34874 ft 448 kts 169°
2026-04-21 23:02 52.85427 50.47407 34873 ft 447 kts 169°
2026-04-21 23:03 52.79416 50.50065 34884 ft 447 kts 169°
2026-04-21 23:03 52.73408 50.52726 34866 ft 447 kts 170°
2026-04-21 23:04 52.67401 50.55379 34876 ft 446 kts 170°
2026-04-21 23:04 52.61405 50.58035 34888 ft 446 kts 170°
2026-04-21 23:05 52.55411 50.60670 34888 ft 446 kts 170°
2026-04-21 23:05 52.49408 50.63302 34887 ft 446 kts 170°
2026-04-21 23:06 52.43414 50.65918 34902 ft 446 kts 170°
2026-04-21 23:06 52.37461 50.68518 34908 ft 445 kts 170°
2026-04-21 23:07 52.31474 50.71117 34905 ft 445 kts 170°
2026-04-21 23:07 52.25492 50.73708 34902 ft 445 kts 170°
2026-04-21 23:08 52.19521 50.76286 34911 ft 443 kts 171°
2026-04-21 23:08 52.13581 50.78846 34919 ft 441 kts 171°
2026-04-21 23:09 52.07655 50.81389 34922 ft 440 kts 171°
2026-04-21 23:09 52.01747 50.83912 34922 ft 439 kts 171°
2026-04-21 23:10 51.95846 50.86438 34904 ft 438 kts 171°
2026-04-21 23:10 51.89972 50.88956 34932 ft 436 kts 171°
2026-04-21 23:11 51.84117 50.91483 34934 ft 435 kts 171°
2026-04-21 23:11 51.78286 50.93999 34942 ft 433 kts 171°
2026-04-21 23:12 51.72458 50.96484 34935 ft 432 kts 171°
2026-04-21 23:12 51.67004 50.99327 34916 ft 440 kts 160°
2026-04-21 23:13 51.61766 51.04610 34902 ft 445 kts 153°
2026-04-21 23:13 51.56594 51.10102 34917 ft 445 kts 153°
2026-04-21 23:14 51.51414 51.15558 34924 ft 445 kts 153°
2026-04-21 23:14 51.46229 51.21002 34915 ft 445 kts 153°
2026-04-21 23:15 51.41067 51.26469 34929 ft 445 kts 153°
2026-04-21 23:15 51.35924 51.31991 34939 ft 445 kts 153°
2026-04-21 23:16 51.30791 51.37493 34949 ft 444 kts 153°
2026-04-21 23:16 51.25648 51.42967 34937 ft 444 kts 153°
2026-04-21 23:17 51.20503 51.48413 34947 ft 443 kts 153°
2026-04-21 23:17 51.15428 51.54010 34951 ft 449 kts 146°
2026-04-21 23:18 51.11194 51.61492 34944 ft 458 kts 136°
2026-04-21 23:18 51.07139 51.69332 34917 ft 458 kts 136°
2026-04-21 23:19 51.03072 51.77124 34940 ft 458 kts 136°
2026-04-21 23:19 50.99003 51.84907 34952 ft 458 kts 136°
2026-04-21 23:20 50.94932 51.92679 34960 ft 458 kts 136°
2026-04-21 23:20 50.90866 52.00440 34935 ft 457 kts 136°
2026-04-21 23:21 50.86800 52.08185 34939 ft 457 kts 137°
2026-04-21 23:21 50.82729 52.15902 34950 ft 456 kts 137°
2026-04-21 23:22 50.78655 52.23596 34960 ft 456 kts 137°
2026-04-21 23:22 50.74578 52.31268 34951 ft 456 kts 137°
2026-04-21 23:23 50.70519 52.38870 34951 ft 455 kts 137°
2026-04-21 23:23 50.66441 52.46518 34959 ft 455 kts 137°
2026-04-21 23:24 50.62386 52.54182 34965 ft 455 kts 137°
2026-04-21 23:24 50.58323 52.61828 34966 ft 455 kts 137°
2026-04-21 23:25 50.54912 52.68211 34943 ft 455 kts 137°
2026-04-21 23:25 50.50836 52.75811 34955 ft 455 kts 137°
2026-04-21 23:26 50.46785 52.83363 34969 ft 455 kts 137°
2026-04-21 23:26 50.42705 52.90943 34972 ft 455 kts 137°
2026-04-21 23:27 50.38619 52.98509 34976 ft 454 kts 137°
2026-04-21 23:27 50.34532 53.06060 34974 ft 454 kts 137°
2026-04-21 23:28 50.30440 53.13582 34972 ft 454 kts 137°
2026-04-21 23:28 50.26348 53.21091 34970 ft 454 kts 137°
2026-04-21 23:29 50.22258 53.28601 34948 ft 454 kts 137°
2026-04-21 23:29 50.18169 53.36092 34954 ft 453 kts 137°
2026-04-21 23:30 50.14061 53.43558 34961 ft 453 kts 137°
2026-04-21 23:30 50.09945 53.51008 34965 ft 454 kts 137°
2026-04-21 23:31 50.05824 53.58457 34939 ft 454 kts 137°
2026-04-21 23:31 50.01710 53.65890 34961 ft 454 kts 137°
2026-04-21 23:32 49.97585 53.73302 34978 ft 453 kts 137°
2026-04-21 23:32 49.93452 53.80693 34982 ft 453 kts 137°
2026-04-21 23:33 49.89328 53.88085 34963 ft 453 kts 137°
2026-04-21 23:33 49.85219 53.95424 34979 ft 452 kts 138°
2026-04-21 23:34 49.81079 54.02784 34988 ft 451 kts 138°
2026-04-21 23:34 49.76953 54.10095 34991 ft 451 kts 138°
2026-04-21 23:35 49.72824 54.17399 34963 ft 451 kts 138°
2026-04-21 23:35 49.68699 54.24695 34984 ft 450 kts 138°
2026-04-21 23:36 49.64598 54.31914 34998 ft 450 kts 138°
2026-04-21 23:36 49.60487 54.39116 34997 ft 450 kts 138°
2026-04-21 23:37 49.56350 54.46351 34969 ft 449 kts 138°
2026-04-21 23:37 49.52215 54.53570 34981 ft 448 kts 138°
2026-04-21 23:38 49.48085 54.60742 34989 ft 448 kts 139°
2026-04-21 23:38 49.43953 54.67894 34991 ft 447 kts 139°
2026-04-21 23:39 49.39828 54.75035 34987 ft 447 kts 139°
2026-04-21 23:39 49.35698 54.82159 34970 ft 446 kts 139°
2026-04-21 23:40 49.31598 54.89199 34983 ft 446 kts 139°
2026-04-21 23:40 49.27465 54.96272 34983 ft 445 kts 139°
2026-04-21 23:41 49.23340 55.03339 34986 ft 445 kts 139°
2026-04-21 23:41 49.19240 55.10337 34964 ft 445 kts 139°
2026-04-21 23:42 49.15106 55.17369 34966 ft 445 kts 139°
2026-04-21 23:42 49.10969 55.24390 34971 ft 445 kts 139°
2026-04-21 23:43 49.06833 55.31395 34978 ft 444 kts 139°
2026-04-21 23:43 49.02689 55.38394 34967 ft 444 kts 139°
2026-04-21 23:44 48.98545 55.45377 34966 ft 444 kts 139°
2026-04-21 23:44 48.94394 55.52343 34967 ft 444 kts 139°
2026-04-21 23:45 48.88166 55.62775 34937 ft 444 kts 139°
2026-04-21 23:46 48.84004 55.69719 34944 ft 444 kts 139°
2026-04-21 23:46 48.79836 55.76653 34949 ft 444 kts 139°
2026-04-21 23:47 48.75669 55.83558 34950 ft 444 kts 139°
2026-04-21 23:47 48.71508 55.90417 34957 ft 445 kts 139°
2026-04-21 23:48 48.67327 55.97316 34959 ft 445 kts 139°
2026-04-21 23:48 48.63140 56.04200 34958 ft 445 kts 139°
2026-04-21 23:49 48.58951 56.11074 34964 ft 445 kts 139°
2026-04-21 23:49 48.54751 56.17937 34946 ft 445 kts 139°
2026-04-21 23:50 48.50555 56.24792 34955 ft 445 kts 139°
2026-04-21 23:50 48.46357 56.31635 34960 ft 445 kts 139°
2026-04-21 23:51 48.42152 56.38472 34959 ft 444 kts 139°
2026-04-21 23:51 48.37950 56.45288 34935 ft 444 kts 139°
2026-04-21 23:52 48.33737 56.52071 34945 ft 444 kts 139°
2026-04-21 23:52 48.29523 56.58842 34949 ft 443 kts 139°
2026-04-21 23:53 48.25315 56.65617 34946 ft 443 kts 139°
2026-04-21 23:53 48.21101 56.72373 34931 ft 443 kts 139°
2026-04-21 23:54 48.16885 56.79118 34945 ft 443 kts 139°
2026-04-21 23:54 48.12668 56.85852 34946 ft 443 kts 139°
2026-04-21 23:55 48.08444 56.92571 34952 ft 443 kts 139°
2026-04-21 23:55 48.04217 56.99270 34930 ft 443 kts 139°
2026-04-21 23:56 47.99992 57.05951 34934 ft 443 kts 139°
2026-04-21 23:56 47.95762 57.12626 34933 ft 443 kts 139°
2026-04-21 23:57 47.91527 57.19294 34938 ft 443 kts 140°
2026-04-21 23:57 47.87284 57.25950 34916 ft 443 kts 140°
2026-04-21 23:58 47.83037 57.32596 34924 ft 443 kts 140°
2026-04-21 23:58 47.78777 57.39244 34932 ft 444 kts 140°
2026-04-21 23:59 47.74522 57.45894 34937 ft 444 kts 140°
2026-04-21 23:59 47.70258 57.52524 34923 ft 444 kts 140°
2026-04-22 00:00 47.65989 57.59138 34923 ft 443 kts 140°
2026-04-22 00:00 47.61719 57.65725 34928 ft 443 kts 140°
2026-04-22 00:01 47.57449 57.72312 34933 ft 443 kts 140°
2026-04-22 00:01 47.53175 57.78908 34916 ft 444 kts 140°
2026-04-22 00:02 47.48897 57.85492 34922 ft 444 kts 140°
2026-04-22 00:02 47.44613 57.92052 34925 ft 443 kts 140°
2026-04-22 00:03 47.40324 57.98588 34927 ft 443 kts 140°
2026-04-22 00:03 47.36034 58.05137 34911 ft 443 kts 140°
2026-04-22 00:04 47.31741 58.11665 34919 ft 443 kts 140°
2026-04-22 00:04 47.27445 58.18178 34919 ft 443 kts 140°
2026-04-22 00:05 47.23149 58.24674 34925 ft 443 kts 140°
2026-04-22 00:05 47.18876 58.31114 34892 ft 442 kts 140°
2026-04-22 00:06 47.14575 58.37576 34906 ft 442 kts 141°
2026-04-22 00:06 47.10272 58.44022 34916 ft 442 kts 141°
2026-04-22 00:07 47.05972 58.50471 34921 ft 442 kts 140°
2026-04-22 00:07 47.01671 58.56908 34913 ft 442 kts 141°
2026-04-22 00:08 46.97363 58.63331 34915 ft 442 kts 141°
2026-04-22 00:08 46.93053 58.69730 34916 ft 442 kts 141°
2026-04-22 00:09 46.88732 58.76122 34889 ft 441 kts 141°
2026-04-22 00:09 46.84413 58.82491 34900 ft 441 kts 141°
2026-04-22 00:10 46.80822 58.87779 34894 ft 441 kts 141°
2026-04-22 00:10 46.76482 58.94189 34899 ft 441 kts 141°
2026-04-22 00:11 46.72199 59.00503 34876 ft 441 kts 141°
2026-04-22 00:11 46.67875 59.06850 34877 ft 441 kts 141°
2026-04-22 00:12 46.63542 59.13172 34876 ft 441 kts 141°
2026-04-22 00:12 46.59202 59.19479 34879 ft 441 kts 141°
2026-04-22 00:13 46.54866 59.25785 34861 ft 441 kts 141°
2026-04-22 00:13 46.50522 59.32092 34868 ft 442 kts 141°
2026-04-22 00:14 46.46166 59.38381 34867 ft 442 kts 141°
2026-04-22 00:14 46.41814 59.44673 34866 ft 442 kts 141°
2026-04-22 00:15 46.37461 59.50967 34854 ft 442 kts 141°
2026-04-22 00:15 46.33100 59.57235 34856 ft 442 kts 141°
2026-04-22 00:16 46.28730 59.63497 34861 ft 442 kts 141°
2026-04-22 00:16 46.24360 59.69744 34836 ft 442 kts 142°
2026-04-22 00:17 46.19946 59.75914 34847 ft 441 kts 143°
2026-04-22 00:17 46.15425 59.81878 34853 ft 440 kts 144°
2026-04-22 00:18 46.10874 59.87794 34854 ft 441 kts 144°
2026-04-22 00:18 46.06339 59.93735 34834 ft 441 kts 144°
2026-04-22 00:19 46.01814 59.99703 34838 ft 442 kts 144°
2026-04-22 00:19 45.97279 60.05673 34841 ft 442 kts 144°
2026-04-22 00:20 45.92734 60.11619 34847 ft 442 kts 144°
2026-04-22 00:20 45.88183 60.17564 34829 ft 443 kts 144°
2026-04-22 00:21 45.83621 60.23519 34832 ft 444 kts 144°
2026-04-22 00:21 45.79052 60.29466 34841 ft 444 kts 144°
2026-04-22 00:22 45.74473 60.35413 34821 ft 444 kts 144°
2026-04-22 00:22 45.69891 60.41352 34831 ft 445 kts 144°
2026-04-22 00:23 45.65295 60.47282 34843 ft 445 kts 144°
2026-04-22 00:23 45.60693 60.53199 34845 ft 445 kts 144°
2026-04-22 00:24 45.56089 60.59122 34826 ft 445 kts 144°
2026-04-22 00:24 45.51482 60.65045 34832 ft 446 kts 144°
2026-04-22 00:25 45.46872 60.70957 34838 ft 446 kts 144°
2026-04-22 00:25 45.42253 60.76845 34839 ft 446 kts 144°
2026-04-22 00:26 45.37630 60.82739 34842 ft 446 kts 144°
2026-04-22 00:26 45.33000 60.88619 34844 ft 446 kts 144°
2026-04-22 00:27 45.28371 60.94487 34846 ft 446 kts 144°
2026-04-22 00:27 45.23739 61.00354 34829 ft 446 kts 144°
2026-04-22 00:28 45.19107 61.06201 34838 ft 446 kts 145°
2026-04-22 00:28 45.14475 61.12032 34842 ft 446 kts 145°
2026-04-22 00:29 45.09831 61.17853 34840 ft 445 kts 145°
2026-04-22 00:29 45.05192 61.23663 34824 ft 445 kts 145°
2026-04-22 00:30 45.00584 61.29426 34829 ft 445 kts 145°
2026-04-22 00:30 44.95940 61.35230 34831 ft 446 kts 145°
2026-04-22 00:31 44.91292 61.41019 34798 ft 446 kts 145°
2026-04-22 00:31 44.86638 61.46797 34806 ft 446 kts 145°
2026-04-22 00:32 44.81981 61.52580 34814 ft 446 kts 145°
2026-04-22 00:32 44.77323 61.58360 34822 ft 447 kts 145°
2026-04-22 00:33 44.72654 61.64124 34811 ft 447 kts 145°
2026-04-22 00:33 44.67975 61.69884 34810 ft 447 kts 145°
2026-04-22 00:34 44.63301 61.75629 34808 ft 447 kts 145°
2026-04-22 00:34 44.58620 61.81370 34790 ft 447 kts 145°
2026-04-22 00:35 44.53942 61.87096 34795 ft 447 kts 145°
2026-04-22 00:35 44.49284 61.92786 34800 ft 447 kts 145°
2026-04-22 00:36 44.44568 61.98537 34780 ft 447 kts 145°
2026-04-22 00:36 44.39874 62.04259 34786 ft 447 kts 145°
2026-04-22 00:37 44.35207 62.09922 34793 ft 448 kts 146°
2026-04-22 00:37 44.30492 62.15614 34802 ft 448 kts 146°
2026-04-22 00:38 44.25776 62.21310 34793 ft 448 kts 146°
2026-04-22 00:38 44.21052 62.26994 34804 ft 449 kts 146°
2026-04-22 00:39 44.16324 62.32680 34804 ft 449 kts 146°
2026-04-22 00:39 44.11592 62.38346 34796 ft 449 kts 146°
2026-04-22 00:40 44.06853 62.44002 34810 ft 449 kts 146°
2026-04-22 00:40 44.02114 62.49658 34815 ft 449 kts 146°
2026-04-22 00:41 43.97376 62.55307 34820 ft 449 kts 146°
2026-04-22 00:41 43.92634 62.60948 34797 ft 449 kts 146°
2026-04-22 00:42 43.87889 62.66554 34809 ft 449 kts 147°
2026-04-22 00:42 43.83121 62.72175 34816 ft 449 kts 147°
2026-04-22 00:43 43.78367 62.77790 34814 ft 449 kts 147°
2026-04-22 00:43 43.73610 62.83386 34820 ft 449 kts 147°
2026-04-22 00:44 43.68848 62.88980 34827 ft 449 kts 147°
2026-04-22 00:44 43.64087 62.94557 34802 ft 449 kts 147°
2026-04-22 00:45 43.59316 63.00128 34815 ft 449 kts 147°
2026-04-22 00:45 43.54552 63.05703 34825 ft 449 kts 147°
2026-04-22 00:46 43.49788 63.11274 34823 ft 449 kts 147°
2026-04-22 00:46 43.45017 63.16834 34818 ft 449 kts 147°
2026-04-22 00:47 43.40238 63.22384 34821 ft 449 kts 147°
2026-04-22 00:47 43.35455 63.27916 34825 ft 449 kts 147°
2026-04-22 00:48 43.30676 63.33448 34804 ft 449 kts 147°
2026-04-22 00:48 43.25887 63.38973 34816 ft 450 kts 147°
2026-04-22 00:49 43.21094 63.44488 34827 ft 450 kts 147°
2026-04-22 00:49 43.16302 63.49989 34805 ft 450 kts 148°
2026-04-22 00:50 43.11499 63.55486 34820 ft 450 kts 148°
2026-04-22 00:50 43.06733 63.60941 34825 ft 450 kts 148°
2026-04-22 00:51 43.01903 63.66461 34813 ft 450 kts 148°
2026-04-22 00:51 42.97134 63.71899 34831 ft 449 kts 148°
2026-04-22 00:52 42.92298 63.77390 34842 ft 449 kts 148°
2026-04-22 00:52 42.87515 63.82789 34849 ft 449 kts 148°
2026-04-22 00:53 42.82703 63.88217 34836 ft 449 kts 149°
2026-04-22 00:53 42.78675 63.92766 34843 ft 449 kts 149°
2026-04-22 00:54 42.73088 63.99067 34850 ft 449 kts 149°
2026-04-22 00:54 42.69060 64.03591 34837 ft 449 kts 149°
2026-04-22 00:55 42.64240 64.08987 34849 ft 448 kts 149°
2026-04-22 00:55 42.56984 64.16986 34856 ft 446 kts 152°
2026-04-22 00:56 42.52002 64.21946 34841 ft 443 kts 154°
2026-04-22 00:56 42.47003 64.26757 34849 ft 443 kts 154°
2026-04-22 00:57 42.41996 64.31638 34854 ft 444 kts 153°
2026-04-22 00:57 42.37015 64.36568 34844 ft 444 kts 154°
2026-04-22 00:58 42.32037 64.41495 34854 ft 444 kts 154°
2026-04-22 00:58 42.27050 64.46401 34859 ft 443 kts 154°
2026-04-22 00:59 42.22095 64.51257 34862 ft 443 kts 154°
2026-04-22 00:59 42.17074 64.56162 34862 ft 443 kts 154°
2026-04-22 01:00 42.12120 64.61005 34863 ft 443 kts 154°
2026-04-22 01:00 42.07141 64.65863 34854 ft 442 kts 155°
2026-04-22 01:01 42.02162 64.70713 34862 ft 442 kts 155°
2026-04-22 01:01 41.97183 64.75549 34863 ft 441 kts 155°
2026-04-22 01:02 41.92206 64.80363 34850 ft 440 kts 155°
2026-04-22 01:02 41.87243 64.85163 34859 ft 440 kts 155°
2026-04-22 01:03 41.82284 64.89965 34862 ft 439 kts 155°
2026-04-22 01:03 41.77327 64.94737 34853 ft 438 kts 156°
2026-04-22 01:04 41.72373 64.99496 34834 ft 438 kts 155°
2026-04-22 01:04 41.67419 65.04257 34847 ft 439 kts 155°
2026-04-22 01:05 41.62450 65.09009 34838 ft 439 kts 155°
2026-04-22 01:05 41.57481 65.13756 34831 ft 439 kts 155°
2026-04-22 01:06 41.52508 65.18508 34842 ft 440 kts 155°
2026-04-22 01:06 41.47528 65.23260 34846 ft 440 kts 155°
2026-04-22 01:07 41.42536 65.28002 34833 ft 441 kts 155°
2026-04-22 01:07 41.37537 65.32743 34834 ft 442 kts 155°
2026-04-22 01:08 41.32515 65.37503 34841 ft 443 kts 155°
2026-04-22 01:08 41.27483 65.42265 34826 ft 444 kts 154°
2026-04-22 01:09 41.22438 65.47019 34837 ft 445 kts 154°
2026-04-22 01:09 41.17383 65.51771 34845 ft 445 kts 154°
2026-04-22 01:10 41.12326 65.56528 34835 ft 446 kts 154°
2026-04-22 01:10 41.07264 65.61274 34842 ft 446 kts 154°
2026-04-22 01:11 41.02198 65.65994 34842 ft 445 kts 155°
2026-04-22 01:11 40.97119 65.70694 34836 ft 445 kts 155°
2026-04-22 01:12 40.92077 65.75347 34849 ft 445 kts 155°
2026-04-22 01:12 40.87002 65.80027 34858 ft 445 kts 155°
2026-04-22 01:13 40.81929 65.84703 34840 ft 445 kts 155°
2026-04-22 01:13 40.76857 65.89368 34851 ft 444 kts 155°
2026-04-22 01:14 40.71782 65.94014 34858 ft 444 kts 155°
2026-04-22 01:14 40.66703 65.98659 34864 ft 445 kts 155°
2026-04-22 01:15 40.61621 66.03309 34871 ft 445 kts 155°
2026-04-22 01:15 40.56539 66.07950 34874 ft 445 kts 155°
2026-04-22 01:16 40.51455 66.12578 34876 ft 445 kts 155°
2026-04-22 01:16 40.46366 66.17196 34859 ft 444 kts 155°
2026-04-22 01:17 40.41285 66.21806 34863 ft 443 kts 155°
2026-04-22 01:17 40.36222 66.26405 34851 ft 443 kts 155°
2026-04-22 01:18 40.31148 66.31006 34828 ft 444 kts 155°
2026-04-22 01:18 40.26071 66.35590 34822 ft 443 kts 155°
2026-04-22 01:19 40.20997 66.40168 34821 ft 443 kts 155°
2026-04-22 01:19 40.15923 66.44744 34820 ft 443 kts 154°
2026-04-22 01:20 40.10837 66.49317 34793 ft 444 kts 154°
2026-04-22 01:20 40.05777 66.53849 34790 ft 444 kts 154°
2026-04-22 01:21 40.00675 66.58415 34771 ft 445 kts 154°
2026-04-22 01:21 39.95545 66.62965 34755 ft 447 kts 154°
2026-04-22 01:22 39.90381 66.67521 34745 ft 449 kts 154°
2026-04-22 01:22 39.85212 66.72078 34738 ft 449 kts 154°
2026-04-22 01:23 39.80039 66.76639 34736 ft 449 kts 154°
2026-04-22 01:23 39.74869 66.81208 34726 ft 450 kts 154°
2026-04-22 01:24 39.69699 66.85781 34726 ft 450 kts 154°
2026-04-22 01:24 39.64532 66.90350 34716 ft 450 kts 154°
2026-04-22 01:25 39.59338 66.94904 34700 ft 451 kts 154°
2026-04-22 01:25 39.54142 66.99469 34701 ft 451 kts 154°
2026-04-22 01:26 39.48951 67.04034 34705 ft 451 kts 154°
2026-04-22 01:26 39.43758 67.08602 34684 ft 451 kts 154°
2026-04-22 01:27 39.38568 67.13188 34686 ft 452 kts 154°
2026-04-22 01:27 39.33380 67.17753 34701 ft 451 kts 154°
2026-04-22 01:28 39.28194 67.22339 34711 ft 452 kts 154°
2026-04-22 01:28 39.23001 67.26873 34700 ft 451 kts 154°
2026-04-22 01:29 39.17809 67.31415 34713 ft 451 kts 154°
2026-04-22 01:29 39.12626 67.35950 34729 ft 451 kts 154°
2026-04-22 01:30 39.07438 67.40497 34726 ft 450 kts 154°
2026-04-22 01:30 39.02253 67.45012 34741 ft 450 kts 154°
2026-04-22 01:31 38.97077 67.49537 34749 ft 450 kts 154°
2026-04-22 01:31 38.91896 67.54057 34757 ft 450 kts 154°
2026-04-22 01:32 38.86720 67.58574 34750 ft 450 kts 154°
2026-04-22 01:32 38.81542 67.63092 34748 ft 450 kts 154°
2026-04-22 01:33 38.76362 67.67581 34748 ft 449 kts 154°
2026-04-22 01:33 38.71186 67.72058 34715 ft 450 kts 154°
2026-04-22 01:34 38.65975 67.76527 34712 ft 451 kts 154°
2026-04-22 01:34 38.60777 67.81006 34689 ft 450 kts 154°
2026-04-22 01:35 38.55616 67.85448 34658 ft 450 kts 154°
2026-04-22 01:35 38.50414 67.89904 34610 ft 450 kts 154°
2026-04-22 01:36 38.45205 67.94345 34621 ft 451 kts 154°
2026-04-22 01:36 38.39956 67.98820 34598 ft 451 kts 154°
2026-04-22 01:37 38.34780 68.03234 34571 ft 451 kts 154°
2026-04-22 01:37 38.29557 68.07665 34571 ft 451 kts 154°
2026-04-22 01:38 38.24337 68.12089 34566 ft 451 kts 154°
2026-04-22 01:38 38.19116 68.16515 34560 ft 451 kts 154°
2026-04-22 01:39 38.13892 68.20936 34551 ft 452 kts 154°
2026-04-22 01:39 38.08653 68.25358 34544 ft 452 kts 154°
2026-04-22 01:40 38.04303 68.29025 34533 ft 452 kts 154°
2026-04-22 01:40 37.99062 68.33445 34536 ft 452 kts 154°
2026-04-22 01:41 37.93815 68.37843 34502 ft 452 kts 154°
2026-04-22 01:41 37.88556 68.42230 34478 ft 452 kts 154°
2026-04-22 01:42 37.83300 68.46603 34462 ft 452 kts 153°
2026-04-22 01:42 37.78046 68.50978 34425 ft 453 kts 153°
2026-04-22 01:43 37.72748 68.55372 34415 ft 457 kts 153°
2026-04-22 01:43 37.67423 68.59774 34409 ft 457 kts 153°
2026-04-22 01:44 37.62099 68.64174 34405 ft 458 kts 153°
2026-04-22 01:44 37.56769 68.68577 34388 ft 459 kts 153°
2026-04-22 01:45 37.51426 68.72983 34385 ft 459 kts 153°
2026-04-22 01:45 37.46092 68.77382 34385 ft 459 kts 153°
2026-04-22 01:46 37.40787 68.81760 34388 ft 459 kts 153°
2026-04-22 01:46 37.35438 68.86150 34367 ft 459 kts 153°
2026-04-22 01:47 37.30068 68.90532 34371 ft 461 kts 153°
2026-04-22 01:47 37.24688 68.94921 34376 ft 462 kts 153°
2026-04-22 01:48 37.19303 68.99314 34367 ft 461 kts 153°
2026-04-22 01:48 37.13917 69.03674 34363 ft 460 kts 153°
2026-04-22 01:49 37.08543 69.08027 34367 ft 460 kts 153°
2026-04-22 01:49 37.03164 69.12385 34377 ft 460 kts 153°
2026-04-22 01:50 36.97788 69.16741 34378 ft 460 kts 153°
2026-04-22 01:50 36.92410 69.21090 34376 ft 461 kts 153°
2026-04-22 01:51 36.86994 69.25424 34380 ft 463 kts 153°
2026-04-22 01:51 36.81576 69.29755 34381 ft 463 kts 153°
2026-04-22 01:52 36.76139 69.34096 34381 ft 464 kts 153°
2026-04-22 01:52 36.70714 69.38424 34388 ft 463 kts 153°
2026-04-22 01:53 36.65292 69.42753 34393 ft 463 kts 153°
2026-04-22 01:53 36.59864 69.47082 34378 ft 463 kts 153°
2026-04-22 01:54 36.54450 69.51371 34391 ft 464 kts 153°
2026-04-22 01:54 36.49203 69.55496 34407 ft 464 kts 153°
2026-04-22 01:55 36.43716 69.59737 34425 ft 464 kts 153°
2026-04-22 01:55 36.38231 69.63968 34429 ft 465 kts 153°
2026-04-22 01:56 36.32726 69.68181 34441 ft 465 kts 153°
2026-04-22 01:56 36.27215 69.72401 34459 ft 466 kts 153°
2026-04-22 01:57 36.21704 69.76615 34482 ft 466 kts 153°
2026-04-22 01:57 36.16224 69.80769 34495 ft 464 kts 153°
2026-04-22 01:58 36.10702 69.84911 34523 ft 464 kts 153°
2026-04-22 01:58 36.05179 69.89047 34547 ft 464 kts 153°
2026-04-22 01:59 35.99660 69.93172 34584 ft 464 kts 153°
2026-04-22 01:59 35.94136 69.97301 34598 ft 464 kts 153°
2026-04-22 02:00 35.88615 70.01435 34619 ft 464 kts 153°
2026-04-22 02:00 35.83102 70.05561 34616 ft 464 kts 153°
2026-04-22 02:01 35.77584 70.09690 34638 ft 465 kts 153°
2026-04-22 02:01 35.72048 70.13830 34646 ft 466 kts 153°
2026-04-22 02:02 35.66504 70.17976 34649 ft 467 kts 153°
2026-04-22 02:02 35.60955 70.22119 34672 ft 466 kts 153°
2026-04-22 02:03 35.55419 70.26251 34651 ft 466 kts 153°
2026-04-22 02:03 35.49868 70.30382 34653 ft 467 kts 153°
2026-04-22 02:04 35.41548 70.36581 34649 ft 467 kts 153°
2026-04-22 02:05 35.35993 70.40719 34609 ft 467 kts 152°
2026-04-22 02:05 35.30431 70.44848 34571 ft 468 kts 153°
2026-04-22 02:06 35.24898 70.48946 34581 ft 468 kts 153°
2026-04-22 02:06 35.19291 70.53101 34539 ft 468 kts 153°
2026-04-22 02:07 35.13743 70.57164 34495 ft 468 kts 152°
2026-04-22 02:07 35.08134 70.61227 34505 ft 469 kts 152°
2026-04-22 02:08 35.02518 70.65296 34469 ft 470 kts 152°
2026-04-22 02:08 34.96901 70.69366 34427 ft 470 kts 152°
2026-04-22 02:09 34.91286 70.73439 34433 ft 469 kts 152°
2026-04-22 02:09 34.85679 70.77505 34398 ft 469 kts 152°
2026-04-22 02:10 34.80073 70.81574 34398 ft 469 kts 152°
2026-04-22 02:10 34.74455 70.85646 34399 ft 470 kts 152°
2026-04-22 02:11 34.68838 70.89710 34354 ft 471 kts 152°
2026-04-22 02:11 34.63194 70.93764 34359 ft 471 kts 152°
2026-04-22 02:12 34.57550 70.97816 34340 ft 471 kts 152°
2026-04-22 02:12 34.51908 71.01866 34318 ft 471 kts 152°
2026-04-22 02:13 34.46282 71.05891 34306 ft 470 kts 152°
2026-04-22 02:13 34.40639 71.09908 34295 ft 470 kts 152°
2026-04-22 02:14 34.34996 71.13922 34282 ft 470 kts 152°
2026-04-22 02:14 34.29352 71.17934 34281 ft 470 kts 152°
2026-04-22 02:15 34.23704 71.21933 34256 ft 471 kts 152°
2026-04-22 02:15 34.18038 71.25933 34247 ft 472 kts 152°
2026-04-22 02:16 34.12376 71.29928 34245 ft 471 kts 152°
2026-04-22 02:16 34.06718 71.33929 34242 ft 472 kts 152°
2026-04-22 02:17 34.01088 71.37896 34233 ft 472 kts 152°
2026-04-22 02:17 33.95382 71.41908 34229 ft 471 kts 152°
2026-04-22 02:18 33.89721 71.45889 34232 ft 471 kts 152°
2026-04-22 02:18 33.84056 71.49874 34235 ft 471 kts 152°
2026-04-22 02:19 33.78441 71.53823 34220 ft 470 kts 152°
2026-04-22 02:19 33.72798 71.57797 34201 ft 470 kts 152°
2026-04-22 02:20 33.67166 71.61780 34200 ft 470 kts 152°
2026-04-22 02:20 33.61533 71.65762 34192 ft 470 kts 152°
2026-04-22 02:21 33.55914 71.69738 34189 ft 468 kts 152°
2026-04-22 02:21 33.50311 71.73712 34173 ft 468 kts 152°
2026-04-22 02:22 33.44707 71.77689 34167 ft 468 kts 152°
2026-04-22 02:22 33.39125 71.81645 34169 ft 468 kts 152°
2026-04-22 02:23 33.33520 71.85607 34153 ft 468 kts 152°
2026-04-22 02:23 33.27912 71.89559 34147 ft 468 kts 152°
2026-04-22 02:24 33.22294 71.93521 34152 ft 470 kts 152°
2026-04-22 02:24 33.16659 71.97497 34145 ft 471 kts 152°
2026-04-22 02:25 33.11025 72.01469 34139 ft 470 kts 152°
2026-04-22 02:25 33.05394 72.05436 34139 ft 470 kts 152°
2026-04-22 02:26 32.99769 72.09401 34134 ft 470 kts 152°
2026-04-22 02:26 32.94143 72.13365 34139 ft 470 kts 152°
2026-04-22 02:27 32.88525 72.17334 34130 ft 469 kts 152°
2026-04-22 02:27 32.83878 72.20635 34125 ft 468 kts 152°
2026-04-22 02:28 32.78288 72.24607 34123 ft 468 kts 152°
2026-04-22 02:28 32.72679 72.28577 34117 ft 471 kts 152°
2026-04-22 02:29 32.67045 72.32553 34124 ft 472 kts 152°
2026-04-22 02:29 32.61399 72.36535 34117 ft 472 kts 152°
2026-04-22 02:30 32.55760 72.40513 34109 ft 472 kts 152°
2026-04-22 02:30 32.50115 72.44491 34106 ft 472 kts 152°
2026-04-22 02:31 32.44474 72.48469 34092 ft 472 kts 152°
2026-04-22 02:31 32.38869 72.52469 34094 ft 470 kts 152°
2026-04-22 02:32 32.33277 72.56469 34080 ft 470 kts 152°
2026-04-22 02:32 32.27690 72.60465 34084 ft 470 kts 151°
2026-04-22 02:33 32.22075 72.64453 34080 ft 471 kts 152°
2026-04-22 02:33 32.16459 72.68449 34073 ft 471 kts 152°
2026-04-22 02:34 32.10855 72.72445 34073 ft 471 kts 152°
2026-04-22 02:34 32.05253 72.76443 34078 ft 471 kts 152°
2026-04-22 02:35 31.99687 72.80416 34075 ft 471 kts 151°
2026-04-22 02:35 31.94085 72.84415 34069 ft 472 kts 151°
2026-04-22 02:36 31.88470 72.88425 34069 ft 472 kts 151°
2026-04-22 02:36 31.82855 72.92434 34069 ft 472 kts 151°
2026-04-22 02:37 31.77240 72.96437 34064 ft 472 kts 151°
2026-04-22 02:37 31.71600 73.00420 34056 ft 473 kts 151°
2026-04-22 02:38 31.65952 73.04399 34057 ft 474 kts 151°
2026-04-22 02:38 31.60301 73.08380 34068 ft 474 kts 151°
2026-04-22 02:39 31.54647 73.12363 34076 ft 474 kts 151°
2026-04-22 02:39 31.48997 73.16344 34047 ft 474 kts 151°
2026-04-22 02:40 31.43363 73.20348 34050 ft 474 kts 151°
2026-04-22 02:40 31.37719 73.24368 34053 ft 475 kts 151°
2026-04-22 02:41 31.32080 73.28384 34050 ft 474 kts 151°
2026-04-22 02:41 31.26427 73.32384 34048 ft 476 kts 151°
2026-04-22 02:42 31.20746 73.36368 34040 ft 477 kts 151°
2026-04-22 02:42 31.15066 73.40378 34038 ft 477 kts 151°
2026-04-22 02:43 31.09383 73.44390 34040 ft 477 kts 151°
2026-04-22 02:43 31.03738 73.48374 34040 ft 477 kts 151°
2026-04-22 02:44 30.98067 73.52386 34034 ft 476 kts 151°
2026-04-22 02:44 30.92400 73.56456 34029 ft 475 kts 151°
2026-04-22 02:45 30.86821 73.60467 34032 ft 475 kts 151°
2026-04-22 02:45 30.81206 73.64507 34033 ft 474 kts 151°
2026-04-22 02:46 30.75550 73.68526 34035 ft 479 kts 151°
2026-04-22 02:46 30.69819 73.72577 34022 ft 479 kts 151°
2026-04-22 02:47 30.64166 73.76580 34025 ft 479 kts 151°
2026-04-22 02:47 30.58476 73.80610 34022 ft 479 kts 151°
2026-04-22 02:48 30.52783 73.84642 34022 ft 479 kts 151°
2026-04-22 02:48 30.47094 73.88668 34022 ft 478 kts 151°
2026-04-22 02:49 30.41421 73.92674 34015 ft 478 kts 151°
2026-04-22 02:49 30.35748 73.96678 34017 ft 477 kts 151°
2026-04-22 02:50 30.30080 74.00679 34019 ft 477 kts 150°
2026-04-22 02:50 30.24353 74.04678 34020 ft 482 kts 151°
2026-04-22 02:51 30.18595 74.08684 34025 ft 483 kts 151°
2026-04-22 02:51 30.12837 74.12692 34021 ft 483 kts 151°
2026-04-22 02:52 30.07079 74.16699 34027 ft 483 kts 151°
2026-04-22 02:52 30.01316 74.20705 34026 ft 483 kts 151°
2026-04-22 02:53 29.95567 74.24707 34012 ft 482 kts 151°
2026-04-22 02:53 29.89831 74.28702 34019 ft 482 kts 151°
2026-04-22 02:54 29.84090 74.32700 34021 ft 482 kts 151°
2026-04-22 02:54 29.78354 74.36693 34017 ft 483 kts 150°
2026-04-22 02:55 29.72564 74.40681 34020 ft 485 kts 150°
2026-04-22 02:55 29.66774 74.44661 34016 ft 485 kts 150°
2026-04-22 02:56 29.60982 74.48640 34015 ft 485 kts 150°
2026-04-22 02:56 29.55192 74.52618 34009 ft 485 kts 150°
2026-04-22 02:57 29.49402 74.56597 34014 ft 485 kts 150°
2026-04-22 02:57 29.43788 74.60436 34006 ft 483 kts 150°
2026-04-22 02:58 29.38015 74.64371 34005 ft 483 kts 150°
2026-04-22 02:58 29.32244 74.68305 34001 ft 483 kts 150°
2026-04-22 02:59 29.26474 74.72239 34009 ft 483 kts 150°
2026-04-22 02:59 29.20700 74.76167 34000 ft 482 kts 150°
2026-04-22 03:00 29.14966 74.80029 34004 ft 481 kts 150°
2026-04-22 03:00 29.09193 74.83918 34001 ft 481 kts 150°
2026-04-22 03:01 29.03425 74.87801 34005 ft 481 kts 150°
2026-04-22 03:01 28.97653 74.91687 34005 ft 481 kts 150°
2026-04-22 03:02 28.91895 74.95539 34001 ft 479 kts 150°
2026-04-22 03:02 28.86144 74.99373 34007 ft 478 kts 150°
2026-04-22 03:03 28.80395 75.03206 34009 ft 478 kts 150°
2026-04-22 03:03 28.74648 75.07034 34010 ft 480 kts 150°
2026-04-22 03:04 28.68853 75.10862 33996 ft 482 kts 150°
2026-04-22 03:04 28.63058 75.14668 33999 ft 480 kts 150°
2026-04-22 03:05 28.57273 75.18465 34003 ft 480 kts 150°
2026-04-22 03:05 28.51498 75.22258 34004 ft 480 kts 150°
2026-04-22 03:06 28.45714 75.26058 34005 ft 480 kts 150°
2026-04-22 03:06 28.39948 75.29867 34008 ft 478 kts 150°
2026-04-22 03:07 28.34211 75.33678 34005 ft 478 kts 150°
2026-04-22 03:07 28.28477 75.37491 34011 ft 478 kts 150°
2026-04-22 03:08 28.22746 75.41303 34011 ft 478 kts 150°
2026-04-22 03:08 28.17012 75.45107 34013 ft 478 kts 150°
2026-04-22 03:09 28.11273 75.48928 34021 ft 478 kts 150°
2026-04-22 03:09 28.05545 75.52745 34015 ft 478 kts 150°
2026-04-22 03:10 27.99818 75.56563 34029 ft 478 kts 150°
2026-04-22 03:10 27.94087 75.60379 34026 ft 478 kts 150°
2026-04-22 03:11 27.88441 75.64123 34018 ft 462 kts 150°
2026-04-22 03:11 27.85738 75.65920 34005 ft 437 kts 150°
2026-04-22 03:11 27.83206 75.67612 34419 ft 400 kts 150°
2026-04-22 03:11 27.81080 75.69001 36320 ft 299 kts 153°
2026-04-22 03:12 27.79613 75.69913 37485 ft 197 kts 160°
2026-04-22 03:12 27.76459 75.71383 30027 ft 376 kts 165°
2026-04-22 03:12 27.73691 75.72249 27739 ft 434 kts 169°
2026-04-22 03:13 27.70761 75.72883 27743 ft 412 kts 174°
2026-04-22 03:13 27.68949 75.73082 28851 ft 358 kts 180°
2026-04-22 03:13 27.66880 75.73004 31262 ft 230 kts 197°
2026-04-22 03:13 27.65654 75.72690 31382 ft 152 kts 219°
2026-04-22 03:14 27.64734 75.72012 27170 ft 224 kts 248°
2026-04-22 03:14 27.64222 75.69684 23146 ft 375 kts 268°
2026-04-22 03:14 27.64390 75.66456 20607 ft 437 kts 280°
2026-04-22 03:14 27.65239 75.63175 20202 ft 426 kts 293°
2026-04-22 03:15 27.66634 75.60498 21527 ft 359 kts 309°
2026-04-22 03:15 27.68245 75.58970 23979 ft 244 kts 336°
2026-04-22 03:15 27.69499 75.58772 25259 ft 146 kts 357°
2026-04-22 03:15 27.69763 75.58572 19472 ft 119 kts 217°
2026-04-22 03:16 27.67923 75.57643 10072 ft 483 kts 203°
2026-04-22 03:16 27.64353 75.55983 6296 ft 568 kts 204°
2026-04-22 03:16 27.61312 75.54179 9169 ft 408 kts 214°
2026-04-22 03:16 27.59507 75.52613 13232 ft 249 kts 229°
2026-04-22 03:17 27.58913 75.51504 15687 ft 108 kts 288°
2026-04-22 03:17 27.58932 75.50821 13345 ft 45 kts 220°
2026-04-22 03:17 27.58406 75.50729 5152 ft 248 kts 168°
2026-04-22 03:17 27.56912 75.50975 1683 ft 31 kts 156°
2026-04-22 03:18 27.56885 75.50963 1597 ft 0 kts 188°
2026-04-22 03:18 27.56885 75.50961 1591 ft 0 kts 203°
2026-04-22 03:25 27.56885 75.50962 1591 ft 0 kts 201°
2026-04-22 03:33 27.56885 75.50961 1591 ft 0 kts 204°
2026-04-22 03:33 27.56885 75.50962 1597 ft 0 kts 204°
2026-04-22 03:33 27.56885 75.50961 1597 ft 0 kts 204°
2026-04-22 03:34 27.56885 75.50962 1597 ft 0 kts 204°
2026-04-22 03:34 27.56885 75.50961 1597 ft 0 kts 205°
2026-04-22 03:34 27.56885 75.50962 1597 ft 0 kts 205°
2026-04-22 03:35 27.56885 75.50961 1591 ft 0 kts 205°
2026-04-22 03:35 27.56885 75.50962 1597 ft 0 kts 205°
2026-04-22 03:35 27.56885 75.50961 1597 ft 0 kts 205°
2026-04-22 03:42 27.56884 75.50961 1597 ft 0 kts 208°
2026-04-22 03:42 27.56885 75.50961 1597 ft 0 kts 208°
2026-04-22 03:43 27.56884 75.50961 1597 ft 0 kts 209°
2026-04-22 03:43 27.56885 75.50961 1597 ft 0 kts 209°
2026-04-22 03:43 27.56884 75.50961 1597 ft 0 kts 209°
2026-04-22 03:44 27.56885 75.50961 1591 ft 0 kts 209°
2026-04-22 03:44 27.56884 75.50961 1597 ft 0 kts 209°
2026-04-22 03:44 27.56885 75.50961 1597 ft 0 kts 209°
2026-04-22 03:45 27.56884 75.50961 1597 ft 0 kts 210°
2026-04-22 03:45 27.56885 75.50961 1597 ft 0 kts 210°
2026-04-22 03:45 27.56884 75.50961 1597 ft 0 kts 210°
2026-04-22 03:46 27.56885 75.50961 1597 ft 0 kts 210°
2026-04-22 03:46 27.56884 75.50961 1597 ft 0 kts 210°
2026-04-22 04:05 27.56884 75.50962 1591 ft 0 kts 216°
2026-04-22 04:05 27.56884 75.50961 1594 ft 0 kts 216°
2026-04-22 04:06 27.56884 75.50962 1591 ft 0 kts 216°
2026-04-22 04:07 27.56884 75.50961 1594 ft 0 kts 217°
2026-04-22 04:07 27.56884 75.50962 1591 ft 0 kts 217°